Location: Whitehorse
(60.7170°N, 135.0500°W)
Time: 08:35:29
(UTC-07:00)

N. Korean satellite - Visible Passes

Search period start: 17 October 2019 00:00
Search period end: 27 October 2019 00:00
Orbit: 455 x 508 km, 97.2° (Epoch: 16 October)

Date Brightness Start Highest point End Pass type
(mag) Time Alt. Az. Time Alt. Az. Time Alt. Az.
17 Oct 10.0 06:54:15 10° NE 06:56:25 15° E 06:58:34 10° SE visible
18 Oct 7.5 08:01:28 10° NNE 08:04:59 55° ESE 08:08:33 10° S visible
18 Oct 10.2 20:22:27 10° WSW 20:23:59 12° W 20:25:32 10° WNW visible
19 Oct 8.6 07:36:18 10° NNE 07:39:35 33° E 07:42:54 10° SSE visible
19 Oct 9.7 19:55:47 10° SW 19:58:24 20° W 20:01:03 10° NW visible
20 Oct 9.6 07:11:18 10° NE 07:14:05 21° E 07:16:54 10° SE visible
20 Oct 8.7 19:29:45 10° SSW 19:32:53 32° W 19:36:04 10° NNW visible
21 Oct 10.2 06:46:41 10° NE 06:48:31 13° E 06:50:22 10° ESE visible
22 Oct 7.8 07:53:38 10° NNE 07:57:10 47° E 08:00:42 10° S visible
22 Oct 10.0 20:14:03 10° WSW 20:16:03 15° W 20:18:04 10° NW visible
23 Oct 8.9 07:28:30 10° NNE 07:31:42 29° E 07:34:56 10° SSE visible
23 Oct 9.3 19:47:38 10° SSW 19:50:28 23° W 19:53:21 10° NW visible
24 Oct 9.8 07:03:34 10° NE 07:06:11 19° E 07:08:49 10° SE visible
24 Oct 8.3 19:21:43 10° SSW 19:24:58 37° W 19:28:18 10° NNW visible
25 Oct 10.3 06:39:10 10° ENE 06:40:34 12° E 06:42:00 10° ESE visible
25 Oct 7.0 08:11:02 10° NNE 08:14:40 69° ESE 08:18:20 10° S visible
25 Oct 10.4 20:33:00 10° W 20:33:43 10° W 20:34:26 10° WNW visible
26 Oct 8.1 07:45:48 10° NNE 07:49:16 41° E 07:52:46 10° S visible
26 Oct 9.9 20:05:43 10° SW 20:08:05 17° W 20:10:28 10° NW visible
